Location: Newark
(34.6283°N, 36.0776°E)
Time: 06:46:27
(UTC+00:00)

Tiros 1 despin weight - Pass Details

Date: 27 September 2019
Orbit: 594 x 643 km, 48.2° (Epoch: 17 October)

Event Time Altitude Azimuth Distance (km) Brightness Sun altitude
Rises 12:39:49 0° 311° (NW) 2,865 ? 32.1°
Reaches altitude 10° 12:42:14 10° 318° (NW) 1,951 ? 31.7°
Maximum altitude 12:46:29 43° 30° (NNE) 850 ? 30.9°
Drops below altitude 10° 12:50:42 10° 103° (ESE) 1,923 ? 30.1°
Sets 12:53:03 0° 110° (ESE) 2,819 ? 29.7°
